Home > Weather > Versoix > Past weeks

Flag for Switzerland Past Weather in Versoix, Geneva, Switzerland — Yesterday and Last 2 Weeks

Now
67 °F

Mild.


Feels Like: 67 °F
Forecast: 63 / 79 °F
Wind: 2 mph from Northeast

Location: Geneve-Cointrin

Current Time: Jul 24, 2016 at 10:48:37 AM

Latest Report: Jul 24, 2016 at 10:00 AM


Visibility: N/A

Pressure: 30.11 "Hg

Humidity: 86%

Dew Point: 62 °F

Location of VersoixLocation

Past Weather in Versoix — Graph

°F

Versoix Temperature Yesterday

Maximum temperature yesterday: 78 °F (at 3:00 PM)
Minimum temperature yesterday: 64 °F (at 6:00 AM)
Average temperature yesterday: 69 °F

High & Low Weather Summary for the Past Weeks

 TemperatureHumidityPressure
High92 °F (Jul 10, 6:00 PM)96% (Jul 13, 2:00 AM)30.31 "Hg (Jul 13, 2:00 AM)
Low47 °F (Jul 15, 6:00 AM)21% (Jul 18, 6:00 PM)29.86 "Hg (Jul 10, 6:00 PM)
Average69 °F68%30.07 "Hg
* Reported Jul 9 9:00 AM — Jul 24 9:00 AM, Versoix, Weather by CustomWeather, © 2016

Note: Actual official high and low records may vary slightly from our data, if they occured in-between our weather recording intervals... More about our weather records

Advertising

Versoix Weather History for the Previous 24 Hours

Scroll right to see more
 ConditionsComfort  
Time TempWeatherWind HumidityBarometerVisibility
9:00 AM
Sun, Jul 24
66 °FMild.1 mph88%30.11 "HgN/A
8:00 AM63 °FFog.No wind92%30.11 "Hg9 mi
7:00 AM60 °FCool.2 mph94%30.12 "HgN/A
6:00 AM60 °FCool.1 mph95%30.11 "HgN/A
5:00 AM61 °FFog.1 mph96%30.11 "Hg16 mi
4:00 AM62 °FCool.2 mph95%30.11 "HgN/A
3:00 AM63 °FMild.1 mph95%30.11 "HgN/A
2:00 AM63 °FPassing clouds.3 mph95%30.13 "Hg19 mi
1:00 AM65 °FMild.1 mph93%30.13 "HgN/A
12:00 AM65 °FMild.3 mph94%30.12 "HgN/A
11:00 PM
Sat, Jul 23
66 °FPassing clouds.2 mph93%30.11 "Hg22 mi
10:00 PM67 °FMild.3 mph94%30.09 "HgN/A
9:00 PM67 °FMild.3 mph95%30.08 "HgN/A
8:00 PM71 °FOvercast.5 mph79%30.05 "Hg19 mi
7:00 PM73 °FMild.2 mph69%30.03 "HgN/A
6:00 PM73 °FMild.3 mph63%30.03 "HgN/A
5:00 PM76 °FThunderstorms. Overcast.3 mph57%30.01 "Hg16 mi
4:00 PM76 °FMild.9 mph57%30.01 "HgN/A
3:00 PM78 °FWarm.10 mph57%30.00 "HgN/A
2:00 PM75 °FScattered clouds.9 mph61%30.01 "Hg19 mi
1:00 PM75 °FMild.6 mph59%30.01 "HgN/A
12:00 PM73 °FMild.3 mph66%30.02 "HgN/A
11:00 AM71 °FMild.2 mph69%30.03 "HgN/A
10:00 AM68 °FMild.2 mph83%30.04 "HgN/A
Weather by CustomWeather, © 2016

See weather overviewHow to use our weather pages